| time (UTC) | temp C | wind direction | speed KPH | gust KPH | rain 1hr cm | rain 24hr cm | rain mn cm | humidity % | barometer mb |
| 20260504130337 | 6 | 2 | 12.9 | 25.7 | 0.00 | 0.00 | 0.00 | 61 | 1016.6 |
| 20260504120300 | 6 | 359 | 9.7 | 12.9 | 0.00 | 0.00 | 0.00 | 63 | 1015.8 |
| 20260504110224 | 7 | 24 | 6.4 | 11.3 | 0.00 | 0.00 | 0.00 | 57 | 1015.2 |
| 20260504100148 | 7 | 4 | 6.4 | 9.7 | 0.00 | 0.00 | 0.00 | 51 | 1014.1 |
| 20260504090110 | 8 | 321 | 12.9 | 20.9 | 0.00 | 0.00 | 0.00 | 45 | 1013.4 |
| 20260504081540 | 9 | 351 | 20.9 | 30.6 | 0.00 | 0.00 | 0.00 | 47 | 1012.4 |
| 20260504081036 | 10 | 335 | 16.1 | 35.4 | 0.00 | 0.00 | 0.00 | 47 | 1012.3 |
| 20260504080533 | 10 | 3 | 12.9 | 24.1 | 0.00 | 0.00 | 0.00 | 47 | 1012.5 |
| 20260504050346 | 12 | 73 | 0.0 | 1.6 | 0.00 | 0.05 | 0.05 | 42 | 1010.4 |
| 20260504045843 | 12 | 91 | 0.0 | 0.0 | 0.00 | 0.05 | 0.05 | 42 | 1010.3 |
| 20260504045338 | 13 | 91 | 0.0 | 0.0 | 0.00 | 0.05 | 0.05 | 41 | 1010.4 |
| 20260504044835 | 13 | 85 | 0.0 | 0.0 | 0.00 | 0.05 | 0.05 | 40 | 1010.5 |
| 20260504044333 | 14 | 85 | 0.0 | 0.0 | 0.00 | 0.05 | 0.05 | 39 | 1010.4 |
| 20260504043830 | 14 | 81 | 0.0 | 1.6 | 0.00 | 0.05 | 0.05 | 38 | 1010.6 |
| 20260504043327 | 14 | 65 | 1.6 | 3.2 | 0.00 | 0.05 | 0.05 | 37 | 1010.6 |
| 20260504042824 | 15 | 80 | 1.6 | 1.6 | 0.00 | 0.05 | 0.05 | 37 | 1010.4 |
| 20260504042320 | 15 | 43 | 1.6 | 3.2 | 0.00 | 0.05 | 0.05 | 36 | 1010.6 |
| 20260504041817 | 15 | 45 | 3.2 | 4.8 | 0.00 | 0.05 | 0.05 | 36 | 1010.7 |
| 20260504041313 | 15 | 49 | 3.2 | 3.2 | 0.00 | 0.05 | 0.05 | 36 | 1010.5 |
| 20260504040809 | 15 | 25 | 3.2 | 4.8 | 0.00 | 0.05 | 0.05 | 35 | 1010.6 |
| 20260504040307 | 15 | 6 | 4.8 | 4.8 | 0.00 | 0.05 | 0.05 | 36 | 1010.6 |
| 20260504035803 | 15 | 37 | 3.2 | 4.8 | 0.00 | 0.05 | 0.05 | 36 | 1010.6 |
| 20260504035300 | 15 | 346 | 3.2 | 6.4 | 0.00 | 0.05 | 0.05 | 36 | 1010.4 |
| 20260504034757 | 15 | 359 | 6.4 | 9.7 | 0.00 | 0.05 | 0.05 | 36 | 1010.5 |
| 20260504034255 | 15 | 43 | 1.6 | 3.2 | 0.00 | 0.05 | 0.05 | 36 | 1010.4 |
| 20260504033752 | 15 | 42 | 1.6 | 3.2 | 0.00 | 0.05 | 0.05 | 35 | 1010.5 |
| 20260504033249 | 15 | 68 | 1.6 | 3.2 | 0.00 | 0.05 | 0.05 | 36 | 1010.4 |
| 20260504032746 | 15 | 47 | 1.6 | 3.2 | 0.00 | 0.05 | 0.05 | 35 | 1010.4 |
| 20260504032243 | 16 | 45 | 3.2 | 4.8 | 0.00 | 0.05 | 0.05 | 34 | 1010.0 |
| 20260504031740 | 16 | 48 | 3.2 | 4.8 | 0.00 | 0.05 | 0.05 | 34 | 1010.3 |
| 20260504031238 | 16 | 59 | 1.6 | 4.8 | 0.00 | 0.05 | 0.05 | 34 | 1010.3 |
| 20260504030733 | 16 | 53 | 1.6 | 3.2 | 0.00 | 0.05 | 0.05 | 33 | 1010.1 |
| 20260504030230 | 16 | 341 | 3.2 | 3.2 | 0.00 | 0.05 | 0.05 | 33 | 1010.0 |
| 20260504025727 | 16 | 48 | 1.6 | 4.8 | 0.00 | 0.05 | 0.05 | 32 | 1009.9 |
| 20260504025223 | 16 | 354 | 4.8 | 4.8 | 0.00 | 0.05 | 0.05 | 32 | 1010.0 |
| 20260504024720 | 17 | 61 | 1.6 | 3.2 | 0.00 | 0.05 | 0.05 | 31 | 1010.0 |
| 20260504024216 | 17 | 359 | 1.6 | 4.8 | 0.00 | 0.05 | 0.05 | 31 | 1009.9 |
| 20260504023713 | 17 | 354 | 6.4 | 6.4 | 0.00 | 0.05 | 0.05 | 30 | 1009.8 |
| 20260504023209 | 17 | 24 | 4.8 | 6.4 | 0.00 | 0.05 | 0.05 | 29 | 1009.8 |
| 20260504022706 | 17 | 55 | 3.2 | 4.8 | 0.00 | 0.05 | 0.05 | 29 | 1009.8 |
| 20260504022202 | 17 | 40 | 3.2 | 3.2 | 0.00 | 0.05 | 0.05 | 29 | 1009.8 |
| 20260504021700 | 18 | 56 | 1.6 | 3.2 | 0.00 | 0.05 | 0.05 | 28 | 1009.9 |
| 20260504021156 | 18 | 35 | 3.2 | 4.8 | 0.00 | 0.05 | 0.05 | 27 | 1009.9 |
| 20260504020653 | 18 | 23 | 3.2 | 6.4 | 0.00 | 0.05 | 0.05 | 27 | 1009.7 |
| 20260504020149 | 18 | 14 | 4.8 | 9.7 | 0.00 | 0.05 | 0.05 | 26 | 1009.6 |
| 20260504015646 | 18 | 0 | 6.4 | 6.4 | 0.00 | 0.05 | 0.05 | 26 | 1009.9 |
| 20260504015142 | 19 | 2 | 6.4 | 12.9 | 0.00 | 0.05 | 0.05 | 25 | 1009.9 |
| 20260504014638 | 20 | 359 | 6.4 | 9.7 | 0.00 | 0.05 | 0.05 | 25 | 1009.9 |
| 20260504014136 | 20 | 353 | 9.7 | 12.9 | 0.00 | 0.05 | 0.05 | 24 | 1009.8 |
| 20260504013633 | 20 | 346 | 9.7 | 12.9 | 0.00 | 0.05 | 0.05 | 23 | 1009.8 |
| 20260504013130 | 20 | 303 | 11.3 | 17.7 | 0.00 | 0.05 | 0.05 | 23 | 1009.9 |
| 20260504012627 | 20 | 7 | 8.0 | 12.9 | 0.00 | 0.05 | 0.05 | 24 | 1010.0 |
| 20260504012125 | 20 | 356 | 9.7 | 17.7 | 0.00 | 0.05 | 0.05 | 25 | 1010.0 |
| 20260504011621 | 21 | 308 | 9.7 | 16.1 | 0.00 | 0.05 | 0.05 | 25 | 1009.9 |
| 20260504011118 | 21 | 312 | 19.3 | 24.1 | 0.00 | 0.05 | 0.05 | 23 | 1009.9 |
| 20260504010614 | 21 | 17 | 9.7 | 17.7 | 0.00 | 0.05 | 0.05 | 26 | 1009.9 |
| 20260504010110 | 21 | 357 | 11.3 | 12.9 | 0.00 | 0.05 | 0.05 | 26 | 1009.9 |
| 20260504005607 | 21 | 314 | 16.1 | 27.4 | 0.00 | 0.05 | 0.05 | 28 | 1009.7 |
| 20260504005104 | 21 | 287 | 11.3 | 22.5 | 0.00 | 0.05 | 0.05 | 28 | 1009.8 |
| 20260504004602 | 21 | 316 | 6.4 | 16.1 | 0.00 | 0.05 | 0.05 | 28 | 1010.0 |
| 20260504004059 | 21 | 330 | 14.5 | 17.7 | 0.00 | 0.05 | 0.05 | 29 | 1009.9 |
| 20260504003554 | 21 | 308 | 8.0 | 22.5 | 0.00 | 0.05 | 0.05 | 29 | 1010.0 |
| 20260504003051 | 21 | 270 | 11.3 | 29.0 | 0.00 | 0.05 | 0.05 | 29 | 1009.8 |
| 20260504002548 | 21 | 287 | 14.5 | 20.9 | 0.00 | 0.05 | 0.05 | 30 | 1009.9 |
| 20260504002046 | 21 | 332 | 14.5 | 22.5 | 0.00 | 0.05 | 0.05 | 29 | 1009.9 |
| 20260504001544 | 21 | 288 | 9.7 | 16.1 | 0.00 | 0.05 | 0.05 | 30 | 1010.0 |
| 20260504001039 | 21 | 310 | 6.4 | 12.9 | 0.00 | 0.05 | 0.05 | 29 | 1010.1 |
| 20260504000537 | 21 | 284 | 8.0 | 22.5 | 0.00 | 0.05 | 0.05 | 29 | 1010.1 |
| 20260504000034 | 21 | 289 | 12.9 | 16.1 | 0.00 | 0.05 | 0.05 | 28 | 1010.3 |
| 20260503235532 | 21 | 270 | 9.7 | 16.1 | 0.00 | 0.05 | 0.05 | 28 | 1010.1 |
| 20260503235029 | 21 | 316 | 16.1 | 17.7 | 0.00 | 0.05 | 0.05 | 28 | 1010.3 |
| 20260503234526 | 21 | 319 | 17.7 | 30.6 | 0.00 | 0.05 | 0.05 | 28 | 1010.1 |
| 20260503234025 | 21 | 318 | 17.7 | 22.5 | 0.00 | 0.05 | 0.05 | 28 | 1010.4 |
| 20260503233521 | 21 | 303 | 17.7 | 25.7 | 0.00 | 0.05 | 0.05 | 28 | 1010.4 |
| 20260503233017 | 22 | 278 | 16.1 | 22.5 | 0.00 | 0.05 | 0.05 | 26 | 1010.3 |
| 20260503232514 | 21 | 312 | 14.5 | 24.1 | 0.00 | 0.05 | 0.05 | 26 | 1010.4 |
| 20260503232012 | 21 | 284 | 19.3 | 24.1 | 0.00 | 0.05 | 0.05 | 27 | 1010.6 |
| 20260503231509 | 21 | 305 | 20.9 | 30.6 | 0.00 | 0.05 | 0.05 | 26 | 1010.5 |
| 20260503231006 | 21 | 319 | 17.7 | 24.1 | 0.00 | 0.05 | 0.05 | 27 | 1010.7 |
| 20260503230502 | 21 | 307 | 19.3 | 25.7 | 0.00 | 0.05 | 0.05 | 26 | 1010.7 |
| 20260503230000 | 21 | 282 | 22.5 | 29.0 | 0.00 | 0.05 | 0.05 | 26 | 1010.7 |
| 20260503225456 | 22 | 273 | 17.7 | 25.7 | 0.00 | 0.05 | 0.05 | 26 | 1010.5 |
| 20260503224952 | 21 | 261 | 6.4 | 14.5 | 0.00 | 0.05 | 0.05 | 26 | 1010.7 |
| 20260503224449 | 21 | 349 | 16.1 | 22.5 | 0.00 | 0.05 | 0.05 | 25 | 1010.9 |
| 20260503223947 | 21 | 259 | 24.1 | 33.8 | 0.00 | 0.05 | 0.05 | 25 | 1011.0 |
| 20260503223445 | 21 | 262 | 19.3 | 25.7 | 0.00 | 0.05 | 0.05 | 25 | 1010.9 |
| 20260503222940 | 21 | 261 | 25.7 | 33.8 | 0.00 | 0.05 | 0.05 | 25 | 1011.0 |
| 20260503222439 | 21 | 323 | 17.7 | 25.7 | 0.00 | 0.05 | 0.05 | 25 | 1010.9 |
| 20260503221936 | 21 | 274 | 24.1 | 30.6 | 0.00 | 0.05 | 0.05 | 25 | 1011.2 |
| 20260503221434 | 21 | 325 | 9.7 | 25.7 | 0.00 | 0.05 | 0.05 | 26 | 1011.2 |
| 20260503220931 | 21 | 334 | 6.4 | 20.9 | 0.00 | 0.05 | 0.05 | 28 | 1011.2 |
| 20260503220427 | 21 | 270 | 16.1 | 17.7 | 0.00 | 0.05 | 0.05 | 26 | 1011.4 |
| 20260503215925 | 21 | 300 | 11.3 | 20.9 | 0.00 | 0.05 | 0.05 | 28 | 1011.6 |
| 20260503215421 | 21 | 283 | 16.1 | 22.5 | 0.00 | 0.05 | 0.05 | 28 | 1011.7 |
| 20260503214919 | 21 | 247 | 12.9 | 22.5 | 0.00 | 0.05 | 0.05 | 28 | 1011.8 |
| 20260503214416 | 21 | 288 | 12.9 | 20.9 | 0.00 | 0.05 | 0.05 | 28 | 1011.8 |
| 20260503213914 | 21 | 287 | 17.7 | 22.5 | 0.00 | 0.05 | 0.05 | 27 | 1012.1 |
| 20260503213411 | 20 | 259 | 11.3 | 24.1 | 0.00 | 0.05 | 0.05 | 28 | 1011.9 |
| 20260503212908 | 21 | 330 | 12.9 | 20.9 | 0.00 | 0.05 | 0.05 | 26 | 1012.4 |
| 20260503212406 | 21 | 286 | 17.7 | 25.7 | 0.00 | 0.05 | 0.05 | 27 | 1012.3 |
| 20260503211903 | 21 | 296 | 16.1 | 24.1 | 0.00 | 0.05 | 0.05 | 27 | 1012.5 |
| 20260503211359 | 21 | 349 | 16.1 | 25.7 | 0.00 | 0.05 | 0.05 | 27 | 1012.2 |
| 20260503210854 | 21 | 288 | 16.1 | 17.7 | 0.00 | 0.05 | 0.05 | 27 | 1012.4 |
| 20260503210352 | 21 | 322 | 11.3 | 17.7 | 0.00 | 0.05 | 0.05 | 26 | 1012.8 |
| 20260503205847 | 20 | 323 | 14.5 | 27.4 | 0.00 | 0.05 | 0.05 | 27 | 1012.8 |
| 20260503205344 | 20 | 318 | 16.1 | 24.1 | 0.00 | 0.05 | 0.05 | 27 | 1013.0 |
| 20260503204840 | 20 | 305 | 19.3 | 22.5 | 0.00 | 0.05 | 0.05 | 27 | 1013.1 |
| 20260503204338 | 20 | 288 | 11.3 | 16.1 | 0.00 | 0.05 | 0.05 | 28 | 1013.3 |
| 20260503203835 | 20 | 329 | 12.9 | 20.9 | 0.00 | 0.05 | 0.05 | 28 | 1013.2 |
| 20260503203332 | 20 | 284 | 14.5 | 24.1 | 0.00 | 0.05 | 0.05 | 29 | 1013.3 |
| 20260503202829 | 20 | 283 | 17.7 | 29.0 | 0.00 | 0.05 | 0.05 | 28 | 1013.4 |
| 20260503202327 | 20 | 281 | 17.7 | 27.4 | 0.00 | 0.05 | 0.05 | 28 | 1013.5 |
| 20260503201825 | 20 | 306 | 16.1 | 17.7 | 0.00 | 0.05 | 0.05 | 29 | 1013.3 |
| 20260503201321 | 19 | 302 | 12.9 | 25.7 | 0.00 | 0.05 | 0.05 | 31 | 1013.4 |
| 20260503200819 | 20 | 304 | 19.3 | 24.1 | 0.00 | 0.05 | 0.05 | 28 | 1013.6 |
| 20260503200315 | 20 | 248 | 6.4 | 25.7 | 0.00 | 0.05 | 0.05 | 30 | 1013.5 |
| 20260503195812 | 19 | 284 | 9.7 | 14.5 | 0.00 | 0.05 | 0.05 | 30 | 1013.6 |
| 20260503195309 | 19 | 339 | 11.3 | 14.5 | 0.00 | 0.05 | 0.05 | 31 | 1013.6 |
| 20260503194806 | 19 | 210 | 14.5 | 17.7 | 0.00 | 0.05 | 0.05 | 30 | 1013.6 |
| 20260503194302 | 19 | 272 | 12.9 | 22.5 | 0.00 | 0.05 | 0.05 | 32 | 1013.9 |
| 20260503193758 | 19 | 233 | 12.9 | 22.5 | 0.00 | 0.05 | 0.05 | 30 | 1014.0 |
| 20260503193254 | 18 | 316 | 9.7 | 22.5 | 0.00 | 0.05 | 0.05 | 30 | 1014.2 |
| 20260503192750 | 19 | 311 | 16.1 | 20.9 | 0.00 | 0.05 | 0.05 | 30 | 1014.3 |
| 20260503192245 | 18 | 263 | 6.4 | 22.5 | 0.00 | 0.05 | 0.05 | 31 | 1014.4 |
| 20260503191743 | 18 | 273 | 8.0 | 17.7 | 0.00 | 0.05 | 0.05 | 31 | 1014.6 |
| 20260503191240 | 18 | 288 | 14.5 | 17.7 | 0.00 | 0.05 | 0.05 | 31 | 1014.8 |
| 20260503190736 | 18 | 275 | 9.7 | 12.9 | 0.00 | 0.05 | 0.05 | 35 | 1014.6 |
| 20260503190233 | 18 | 312 | 8.0 | 17.7 | 0.00 | 0.05 | 0.05 | 33 | 1014.8 |
| 20260503185731 | 18 | 340 | 14.5 | 22.5 | 0.00 | 0.05 | 0.05 | 31 | 1014.8 |
| 20260503185226 | 18 | 260 | 9.7 | 16.1 | 0.00 | 0.05 | 0.05 | 34 | 1014.9 |
| 20260503184721 | 18 | 2 | 9.7 | 12.9 | 0.00 | 0.05 | 0.05 | 32 | 1014.9 |
| 20260503184217 | 17 | 326 | 11.3 | 22.5 | 0.00 | 0.05 | 0.05 | 34 | 1015.2 |
| 20260503183714 | 18 | 187 | 9.7 | 25.7 | 0.00 | 0.05 | 0.05 | 34 | 1015.3 |
| 20260503183211 | 18 | 322 | 9.7 | 20.9 | 0.00 | 0.05 | 0.05 | 36 | 1015.1 |
| 20260503182709 | 17 | 204 | 4.8 | 20.9 | 0.00 | 0.05 | 0.05 | 36 | 1015.3 |
| 20260503182208 | 18 | 278 | 14.5 | 17.7 | 0.00 | 0.05 | 0.05 | 34 | 1015.5 |
| 20260503181703 | 18 | 301 | 11.3 | 14.5 | 0.00 | 0.05 | 0.05 | 36 | 1015.5 |
| 20260503181200 | 17 | 272 | 9.7 | 12.9 | 0.00 | 0.05 | 0.05 | 35 | 1015.5 |
| 20260503180657 | 17 | 280 | 11.3 | 14.5 | 0.00 | 0.05 | 0.05 | 35 | 1015.8 |
| 20260503180156 | 17 | 280 | 9.7 | 16.1 | 0.00 | 0.05 | 0.05 | 36 | 1015.5 |
| 20260503175652 | 17 | 323 | 8.0 | 14.5 | 0.00 | 0.05 | 0.05 | 39 | 1015.8 |
| 20260503175150 | 17 | 282 | 12.9 | 17.7 | 0.00 | 0.05 | 0.05 | 39 | 1015.9 |
| 20260503174646 | 16 | 271 | 14.5 | 20.9 | 0.00 | 0.05 | 0.05 | 35 | 1015.9 |
| 20260503174143 | 17 | 342 | 11.3 | 16.1 | 0.00 | 0.05 | 0.05 | 36 | 1016.0 |
| 20260503173638 | 16 | 288 | 12.9 | 22.5 | 0.00 | 0.05 | 0.05 | 43 | 1016.1 |
| 20260503173130 | 16 | 263 | 8.0 | 17.7 | 0.00 | 0.05 | 0.05 | 47 | 1016.1 |
| 20260503172626 | 16 | 286 | 6.4 | 17.7 | 0.00 | 0.05 | 0.05 | 47 | 1016.2 |
| 20260503172123 | 16 | 274 | 11.3 | 17.7 | 0.00 | 0.05 | 0.05 | 46 | 1016.2 |
| 20260503171620 | 16 | 279 | 9.7 | 14.5 | 0.00 | 0.05 | 0.05 | 49 | 1016.3 |
| 20260503171117 | 16 | 278 | 11.3 | 14.5 | 0.00 | 0.05 | 0.05 | 49 | 1016.2 |
| 20260503170614 | 16 | 267 | 6.4 | 17.7 | 0.00 | 0.05 | 0.05 | 50 | 1016.4 |
| 20260503170110 | 16 | 271 | 9.7 | 16.1 | 0.00 | 0.05 | 0.05 | 50 | 1016.3 |
| 20260503151006 | 12 | 283 | 4.8 | 6.4 | 0.00 | 0.05 | 0.05 | 69 | 1017.2 |
| 20260503150502 | 11 | 197 | 4.8 | 6.4 | 0.00 | 0.05 | 0.05 | 70 | 1017.1 |